Le nostre stazioni meteo in Italia

Pubblicità
Il mio iltempo24.it
Gela, Italia (16453): Temperatura & dewpoint: 05.12.2018 02:00:00 - 11.12.2018 02:00:00 (CET)Gela, Italia (16453): velocità del vento: 05.12.2018 02:00:00 - 11.12.2018 02:00:00 (CET)Gela, Italia (16453): direzione del vento: 05.12.2018 02:00:00 - 11.12.2018 02:00:00 (CET)Gela, Italia (16453): reduced air pressure: 05.12.2018 02:00:00 - 11.12.2018 02:00:00 (CET)Gela, Italia (16453): visibility: 05.12.2018 02:00:00 - 11.12.2018 02:00:00 (CET)Gela, Italia (16453): ore di luce: 05.12.2018 02:00:00 - 11.12.2018 02:00:00 (CET)
Data & Tempo tt [°C] td [°C] ff [km/h] ff [kn] dd ppp [hPa] vv [km] sd [min]
11.12.2018 02:00:00 - - - - - - - -
11.12.2018 01:00:00 - - - - - - - -
11.12.2018 00:00:00 - - - - - - - -
10.12.2018 23:00:00 - - - - - - - -
10.12.2018 22:00:00 - - - - - - - -
10.12.2018 21:00:00 - - - - - - - -
10.12.2018 20:00:00 - - - - - - - -
10.12.2018 19:00:00 15,0 8,9 9 5 ONO 1015,5 15 0
10.12.2018 18:00:00 15,0 9,0 15 8 O - 10 -
10.12.2018 17:00:00 16,0 10,0 15 8 ONO - 10 -
10.12.2018 16:00:00 16,2 9,9 28 15 O 1014,9 10 60
10.12.2018 15:00:00 16,0 10,0 34 18 O - 10 -
10.12.2018 14:00:00 17,0 10,0 28 15 O - 10 -
10.12.2018 13:00:00 17,4 8,0 29 16 O 1015,7 16 60
10.12.2018 12:00:00 17,0 8,0 18 10 O - 10 -
10.12.2018 11:00:00 17,0 7,0 11 6 ONO - 10 -
10.12.2018 10:00:00 16,2 8,7 8 4 O 1017,2 10 60
10.12.2018 09:00:00 15,0 8,0 13 7 O - 10 -
10.12.2018 08:00:00 14,0 8,0 8 4 ONO - 10 -
10.12.2018 07:00:00 15,4 9,1 15 8 ONO 1015,1 10 0
10.12.2018 06:00:00 - - - - - - - -
10.12.2018 05:00:00 - - - - - - - -
10.12.2018 04:00:00 - - - - - - - -
10.12.2018 03:00:00 - - - - - - - -
10.12.2018 02:00:00 - - - - - - - -
10.12.2018 01:00:00 - - - - - - - -
10.12.2018 00:00:00 - - - - - - - -
09.12.2018 23:00:00 - - - - - - - -
09.12.2018 22:00:00 - - - - - - - -
09.12.2018 21:00:00 - - - - - - - -
09.12.2018 20:00:00 - - - - - - - -
09.12.2018 19:00:00 16,0 10,5 29 16 ONO 1017,2 10 0
09.12.2018 18:00:00 16,0 10,0 11 6 O - 10 -
09.12.2018 17:00:00 16,0 10,0 15 8 O - 10 -
09.12.2018 16:00:00 17,0 9,9 11 6 O 1018,2 20 60
09.12.2018 15:00:00 17,0 9,0 21 11 O - 10 -
09.12.2018 14:00:00 17,0 9,0 24 13 O - 10 -
09.12.2018 13:00:00 16,8 8,7 28 15 O 1019,0 20 60
09.12.2018 12:00:00 16,0 8,0 21 11 O - 10 -
09.12.2018 11:00:00 16,0 8,0 16 9 O - 10 -
09.12.2018 10:00:00 15,0 8,5 4 2 SO 1020,9 18 60
09.12.2018 09:00:00 14,0 7,0 4 2 O - 10 -
09.12.2018 08:00:00 13,0 7,0 5 3 NNO - 10 -
09.12.2018 07:00:00 13,0 6,6 5 3 N 1020,5 12 0
09.12.2018 06:00:00 - - - - - - - -
09.12.2018 05:00:00 - - - - - - - -
09.12.2018 04:00:00 - - - - - - - -
09.12.2018 03:00:00 - - - - - - - -
09.12.2018 02:00:00 - - - - - - - -
09.12.2018 01:00:00 - - - - - - - -
09.12.2018 00:00:00 - - - - - - - -
08.12.2018 23:00:00 - - - - - - - -
08.12.2018 22:00:00 - - - - - - - -
08.12.2018 21:00:00 - - - - - - - -
08.12.2018 20:00:00 - - - - - - - -
08.12.2018 19:00:00 15,2 9,1 11 6 ONO 1017,0 15 0
08.12.2018 18:00:00 16,0 11,0 11 6 NO - 10 -
08.12.2018 17:00:00 17,0 12,0 24 13 O - 10 -
08.12.2018 16:00:00 17,0 11,9 29 16 O 1016,3 15 60
08.12.2018 15:00:00 17,0 12,0 28 15 O - 10 -
08.12.2018 14:00:00 17,0 12,0 24 13 O - 10 -
08.12.2018 13:00:00 16,4 12,0 18 10 O 1017,4 15 18
08.12.2018 12:00:00 16,0 12,0 16 9 O - 10 -
08.12.2018 11:00:00 16,0 12,0 8 4 O - 10 -
08.12.2018 10:00:00 14,6 10,6 5 3 O 1019,8 18 36
08.12.2018 09:00:00 14,0 11,0 0 0 N - 10 -
08.12.2018 08:00:00 13,0 10,0 4 2 ONO - 10 -
08.12.2018 07:00:00 13,0 9,6 5 3 ENE 1019,7 18 0
08.12.2018 06:00:00 - - - - - - - -
08.12.2018 05:00:00 - - - - - - - -
08.12.2018 04:00:00 - - - - - - - -
08.12.2018 03:00:00 - - - - - - - -
08.12.2018 02:00:00 - - - - - - - -
08.12.2018 01:00:00 - - - - - - - -
08.12.2018 00:00:00 - - - - - - - -
07.12.2018 23:00:00 - - - - - - - -
07.12.2018 22:00:00 - - - - - - - -
07.12.2018 21:00:00 - - - - - - - -
07.12.2018 20:00:00 - - - - - - - -
07.12.2018 19:00:00 15,0 8,5 9 5 NE 1021,5 20 0
07.12.2018 18:00:00 15,0 8,0 13 7 NE - 10 -
07.12.2018 17:00:00 16,0 9,0 11 6 NE - 10 -
07.12.2018 16:00:00 16,4 8,4 15 8 ENE 1020,4 18 60
07.12.2018 15:00:00 17,0 9,0 22 12 NE - 10 -
07.12.2018 14:00:00 17,0 10,0 21 11 NE - 10 -
07.12.2018 13:00:00 16,8 10,0 21 11 ENE 1019,9 16 0
07.12.2018 12:00:00 16,0 11,0 18 10 NE - 10 -
07.12.2018 11:00:00 16,0 11,0 22 12 NE - 10 -
07.12.2018 10:00:00 16,4 11,1 21 11 NE 1019,5 15 60
07.12.2018 09:00:00 15,0 10,0 15 8 NE - 10 -
07.12.2018 08:00:00 14,0 10,0 11 6 NE - 10 -
07.12.2018 07:00:00 14,0 9,8 13 7 ENE 1018,1 14 0
07.12.2018 06:00:00 - - - - - - - -
07.12.2018 05:00:00 - - - - - - - -
07.12.2018 04:00:00 - - - - - - - -
07.12.2018 03:00:00 - - - - - - - -
07.12.2018 02:00:00 - - - - - - - -
07.12.2018 01:00:00 - - - - - - - -
07.12.2018 00:00:00 - - - - - - - -
06.12.2018 23:00:00 - - - - - - - -
06.12.2018 22:00:00 - - - - - - - -
06.12.2018 21:00:00 - - - - - - - -
06.12.2018 20:00:00 - - - - - - - -
06.12.2018 19:00:00 15,4 11,0 4 2 ONO 1020,0 12 0
06.12.2018 18:00:00 16,0 12,0 5 3 NO - 10 -
06.12.2018 17:00:00 16,0 11,0 11 6 O - 10 -
06.12.2018 16:00:00 16,0 9,9 5 3 SO 1020,3 20 0
06.12.2018 15:00:00 17,0 10,0 9 5 SO - 10 -
06.12.2018 14:00:00 17,0 8,0 9 5 OSO - 10 -
06.12.2018 13:00:00 17,0 6,5 11 6 SO 1021,7 25 60
06.12.2018 12:00:00 17,0 10,0 4 2 SSO - 10 -
06.12.2018 11:00:00 16,0 10,0 0 0 N - 10 -
06.12.2018 10:00:00 15,0 10,0 0 0 N 1024,0 20 60
06.12.2018 09:00:00 14,0 10,0 5 3 NE - 10 -
06.12.2018 08:00:00 13,0 9,0 0 0 N - 10 -
06.12.2018 07:00:00 13,4 9,5 4 2 NNE 1024,2 16 0
06.12.2018 06:00:00 - - - - - - - -
06.12.2018 05:00:00 - - - - - - - -
06.12.2018 04:00:00 - - - - - - - -
06.12.2018 03:00:00 - - - - - - - -
06.12.2018 02:00:00 - - - - - - - -
06.12.2018 01:00:00 - - - - - - - -
06.12.2018 00:00:00 - - - - - - - -
05.12.2018 23:00:00 - - - - - - - -
05.12.2018 22:00:00 - - - - - - - -
05.12.2018 21:00:00 - - - - - - - -
05.12.2018 20:00:00 - - - - - - - -
05.12.2018 19:00:00 17,0 7,9 9 5 NE 1022,6 25 0
05.12.2018 18:00:00 17,0 8,0 9 5 NE - 10 -
05.12.2018 17:00:00 18,0 7,0 9 5 NNO - 10 -
05.12.2018 16:00:00 20,0 8,4 9 5 N 1020,8 25 60
05.12.2018 15:00:00 20,0 9,0 5 3 N - 10 -
05.12.2018 14:00:00 20,0 9,0 11 6 O - 10 -
05.12.2018 13:00:00 19,8 10,0 9 5 N 1020,3 25 60
05.12.2018 12:00:00 19,0 10,0 13 7 NNO - 10 -
05.12.2018 11:00:00 18,0 11,0 9 5 NNO - 10 -
05.12.2018 10:00:00 17,0 11,1 5 3 ONO 1020,5 25 60
05.12.2018 09:00:00 16,0 11,0 5 3 NE - 10 -
05.12.2018 08:00:00 15,0 10,0 9 5 N - 10 -
05.12.2018 07:00:00 15,0 9,4 8 4 N 1018,4 25 0
05.12.2018 06:00:00 - - - - - - - -
05.12.2018 05:00:00 - - - - - - - -
05.12.2018 04:00:00 - - - - - - - -
05.12.2018 03:00:00 - - - - - - - -
05.12.2018 02:00:00 - - - - - - - -

tt = Temperatura
td = dewpoint
ff = velocità del vento
dd = direzione del vento
ppp = reduced air pressure
vv = visibility
sd = ore di luce

Stazioni seguenti

WeatherPro
AMSI
MeteoEarth